Harlan, IA

12:40 AM CDT on August 26, 2016 (GMT -0500)
Harlan Municipal

Weather History for KHNR - May, 2013

Change the Weather History Date:

Wednesday, May 15, 2013

  Actual Average Record
Temperature  
Mean Temperature 70 °F -  
Max Temperature 82 °F 73 °F 93 °F (2001)
Min Temperature 57 °F 47 °F -99 °F (2000)
Cooling Degree Days 4    
Growing Degree Days 20 (Base 50)    
Moisture  
Dew Point 35 °F    
Average Humidity 33    
Maximum Humidity 59    
Minimum Humidity 10    
Precipitation  
Precipitation 0.00 in - - ()
Sea Level Pressure  
Sea Level Pressure 29.90 in    
Wind  
Wind Speed 7 mph (NE)    
Max Wind Speed 20 mph    
Max Gust Speed 29 mph    
Visibility 10 miles    
Events      
Averages and records for this station are not official NWS values.
T = Trace of Precipitation, MM = Missing Value Source: NWS Daily Summary

Daily Weather History Graph

Daily Weather History Graph

Search for Another Location

Airport or City:

Trip Planner

Search our weather history database for the weather conditions in past years. The results will help you decide how hot, cold, wet, or windy it might be!

Date:

Astronomy

May. 15, 2013 Rise Set
Actual Time 6:01 AM CDT 8:34 PM CDT
Civil Twilight 5:30 AM CDT 9:06 PM CDT
Nautical Twilight 4:50 AM CDT 9:45 PM CDT
Astronomical Twilight 4:06 AM CDT 10:30 PM CDT
Moon 10:39 AM CDT (5/15) 12:20 AM CDT (5/15)
Length of Visible Light 15h 35m
Length of Day
14h 32m
Waxing Crescent, 27% of the Moon is Illuminated
May 15
Waxing Crescent
May 17
First Quarter
May 24
Full
May 31
Last Quarter
Jun 8
New

Hourly Weather History & Observations

Time (CDT) Temp. Dew Point Humidity Pressure Visibility Wind Dir Wind Speed Gust Speed Precip Events Conditions
12:15 AM 66.2 °F 42.8 °F 43% 29.82 in 10.0 mi Calm Calm - N/A   Clear
12:35 AM 66.2 °F 39.2 °F 37% 29.83 in 10.0 mi North 3.5 mph - N/A   Clear
12:55 AM 62.6 °F 41.0 °F 45% 29.83 in 10.0 mi North 3.5 mph - N/A   Clear
1:15 AM 60.8 °F 41.0 °F 48% 29.84 in 10.0 mi North 4.6 mph - N/A   Clear
1:35 AM 62.6 °F 41.0 °F 45% 29.84 in 10.0 mi Calm Calm - N/A   Clear
1:55 AM 62.6 °F 39.2 °F 42% 29.84 in 10.0 mi Calm Calm - N/A   Clear
2:15 AM 64.4 °F 37.4 °F 37% 29.85 in 10.0 mi Calm Calm - N/A   Clear
2:35 AM 62.6 °F 37.4 °F 39% 29.86 in 10.0 mi NNE 5.8 mph - N/A   Clear
2:55 AM 62.6 °F 35.6 °F 37% 29.86 in 10.0 mi North 10.4 mph - N/A   Clear
3:15 AM 62.6 °F 35.6 °F 37% 29.86 in 10.0 mi North 11.5 mph - N/A   Clear
3:35 AM 62.6 °F 33.8 °F 34% 29.87 in 10.0 mi NNE 12.7 mph - N/A   Clear
3:55 AM 62.6 °F 35.6 °F 37% 29.87 in 10.0 mi NNE 8.1 mph - N/A   Clear
4:15 AM 64.4 °F 37.4 °F 37% 29.88 in 10.0 mi NNE 11.5 mph - N/A   Clear
4:35 AM 60.8 °F 39.2 °F 45% 29.88 in 10.0 mi North 9.2 mph - N/A   Clear
4:55 AM 60.8 °F 39.2 °F 45% 29.89 in 10.0 mi NNE 10.4 mph - N/A   Clear
5:15 AM 59.0 °F 41.0 °F 51% 29.90 in 10.0 mi North 10.4 mph - N/A   Clear
5:35 AM 60.8 °F 41.0 °F 48% 29.92 in 10.0 mi NE 5.8 mph - N/A   Clear
5:55 AM 57.2 °F 42.8 °F 59% 29.93 in 10.0 mi ENE 4.6 mph - N/A   Clear
6:15 AM 59.0 °F 41.0 °F 51% 29.93 in 10.0 mi ENE 8.1 mph - N/A   Clear
6:35 AM 57.2 °F 42.8 °F 59% 29.94 in 10.0 mi East 4.6 mph - N/A   Clear
6:55 AM 59.0 °F 42.8 °F 55% 29.94 in 10.0 mi East 5.8 mph - N/A   Clear
7:15 AM 60.8 °F 42.8 °F 52% 29.95 in 10.0 mi ENE 6.9 mph - N/A   Clear
7:35 AM 62.6 °F 42.8 °F 48% 29.94 in 10.0 mi NE 6.9 mph - N/A   Clear
7:55 AM 64.4 °F 39.2 °F 40% 29.94 in 10.0 mi NE 12.7 mph 16.1 mph N/A   Clear
8:15 AM 64.4 °F 39.2 °F 40% 29.94 in 10.0 mi NE 15.0 mph - N/A   Clear
8:35 AM 66.2 °F 39.2 °F 37% 29.95 in 10.0 mi NNE 17.3 mph 20.7 mph N/A   Clear
8:55 AM 66.2 °F 39.2 °F 37% 29.97 in 10.0 mi NNE 17.3 mph 21.9 mph N/A   Clear
9:15 AM 68.0 °F 37.4 °F 33% 29.98 in 10.0 mi NNE 16.1 mph - N/A   Clear
9:35 AM 69.8 °F 33.8 °F 27% 29.98 in 10.0 mi NE 18.4 mph 24.2 mph N/A   Clear
9:55 AM 71.6 °F 32.0 °F 23% 29.97 in 10.0 mi NE 18.4 mph 24.2 mph N/A   Clear
10:15 AM 73.4 °F 30.2 °F 20% 29.98 in 10.0 mi NE 19.6 mph 28.8 mph N/A   Clear
10:55 AM 75.2 °F 26.6 °F 17% 29.97 in 10.0 mi NE 19.6 mph 25.3 mph N/A   Unknown
11:15 AM 75.2 °F 24.8 °F 15% 29.97 in 10.0 mi ENE 18.4 mph 26.5 mph N/A   Clear
3:35 PM 82.4 °F 21.2 °F 10% 29.89 in 10.0 mi ESE 12.7 mph - N/A   Unknown
3:55 PM 82.4 °F 19.4 °F 10% 29.89 in 10.0 mi ENE 13.8 mph 20.7 mph N/A   Clear
4:15 PM 82.4 °F 21.2 °F 10% 29.88 in 10.0 mi East 11.5 mph 18.4 mph N/A   Clear
4:35 PM 82.4 °F 21.2 °F 10% 29.89 in 10.0 mi ENE 15.0 mph - N/A   Clear
4:55 PM 82.4 °F 23.0 °F 11% 29.89 in 10.0 mi East 8.1 mph 16.1 mph N/A   Clear
5:15 PM 82.4 °F 21.2 °F 10% 29.89 in 10.0 mi East 11.5 mph 18.4 mph N/A   Clear
5:35 PM 82.4 °F 23.0 °F 11% 29.89 in 10.0 mi East 8.1 mph - N/A   Clear
5:55 PM 80.6 °F 21.2 °F 11% 29.89 in 10.0 mi East 6.9 mph - N/A   Clear
6:15 PM 82.4 °F 24.8 °F 12% 29.89 in 7.0 mi East 10.4 mph - N/A   Clear
6:35 PM 80.6 °F 23.0 °F 12% 29.89 in 10.0 mi ENE 6.9 mph - N/A   Clear
6:55 PM 80.6 °F 24.8 °F 13% 29.88 in 10.0 mi ENE 11.5 mph 20.7 mph N/A   Clear
7:15 PM 78.8 °F 26.6 °F 15% 29.88 in 10.0 mi ENE 13.8 mph - N/A   Clear
7:35 PM 78.8 °F 26.6 °F 15% 29.89 in 10.0 mi ENE 11.5 mph 16.1 mph N/A   Clear
7:55 PM 77.0 °F 28.4 °F 17% 29.88 in 10.0 mi East 9.2 mph - N/A   Clear
8:15 PM 75.2 °F 30.2 °F 19% 29.88 in 10.0 mi East 5.8 mph - N/A   Clear
8:35 PM 73.4 °F 33.8 °F 23% 29.88 in 10.0 mi East 6.9 mph - N/A   Clear
8:55 PM 73.4 °F 33.8 °F 23% 29.87 in 10.0 mi SE 10.4 mph - N/A   Clear
9:15 PM 73.4 °F 35.6 °F 25% 29.88 in 10.0 mi SE 5.8 mph - N/A   Clear
9:35 PM 69.8 °F 35.6 °F 28% 29.89 in 10.0 mi Calm Calm - N/A   Clear
9:55 PM 64.4 °F 39.2 °F 40% 29.89 in 10.0 mi Calm Calm - N/A   Clear
10:15 PM 64.4 °F 39.2 °F 40% 29.90 in 10.0 mi Calm Calm - N/A   Clear
10:35 PM 62.6 °F 41.0 °F 45% 29.90 in 10.0 mi Calm Calm - N/A   Clear
10:55 PM 62.6 °F 41.0 °F 45% 29.90 in 10.0 mi North 3.5 mph - N/A   Clear
11:15 PM 60.8 °F 42.8 °F 52% 29.90 in 10.0 mi Calm Calm - N/A   Clear
11:35 PM 62.6 °F 42.8 °F 48% 29.91 in 10.0 mi Calm Calm - N/A   Scattered Clouds
11:55 PM 60.8 °F 44.6 °F 55% 29.92 in 10.0 mi Calm Calm - N/A   Scattered Clouds